This is the latest recevied weather packets stored in our database for station/object EA1IOK-1. If no packets are shown the sender has not sent any weather packets the latest 10 day(s).
| Time | Temp. | Humidity | Pressure | Rain* | Wind** | Luminosity | Snow |
|---|---|---|---|---|---|---|---|
| 1777630877 | 21.67° C | 100% | 1017.5 hPa | - | - | - | - |
| 1777629977 | 21.67° C | 100% | 1017.4 hPa | - | - | - | - |
| 1777629076 | 22.22° C | 100% | 1017.7 hPa | - | - | - | - |
| 1777628176 | 20° C | 100% | 1017.7 hPa | - | - | - | - |
| 1777627275 | 18.89° C | 100% | 1017.7 hPa | - | - | - | - |
| 1777626374 | 20.56° C | 100% | 1017.7 hPa | - | - | - | - |
| 1777625473 | 20.56° C | 100% | 1017.7 hPa | - | - | - | - |
| 1777624572 | 18.33° C | 100% | 1017.6 hPa | - | - | - | - |
| 1777623671 | 21.11° C | 100% | 1017.7 hPa | - | - | - | - |
| 1777622769 | 20.56° C | 100% | 1017.8 hPa | - | - | - | - |
| 1777621868 | 16.67° C | 100% | 1017.7 hPa | - | - | - | - |
| 1777620968 | 17.22° C | 100% | 1017.9 hPa | - | - | - | - |
| 1777620066 | 17.78° C | 100% | 1017.7 hPa | - | - | - | - |
| 1777619166 | 16.11° C | 100% | 1017.7 hPa | - | - | - | - |
| 1777618265 | 15° C | 100% | 1017.5 hPa | - | - | - | - |
| 1777617364 | 13.33° C | 100% | 1017.5 hPa | - | - | - | - |
| 1777616464 | 13.33° C | 100% | 1017.3 hPa | - | - | - | - |
| 1777615563 | 12.78° C | 100% | 1017.3 hPa | - | - | - | - |
| 1777614663 | 12.22° C | 100% | 1017.5 hPa | - | - | - | - |
| 1777613763 | 12.22° C | 100% | 1017.5 hPa | - | - | - | - |
| 1777612862 | 12.22° C | 100% | 1017.3 hPa | - | - | - | - |
| 1777611962 | 12.78° C | 100% | 1017.2 hPa | - | - | - | - |
| 1777611060 | 13.33° C | 100% | 1017.1 hPa | - | - | - | - |
| 1777610159 | 12.78° C | 100% | 1017.2 hPa | - | - | - | - |
| 1777609259 | 12.78° C | 100% | 1017.2 hPa | - | - | - | - |
* Rain since midnight (hover to see other rain measurements)
** Current wind speed in m/s (hover to see current wind gust speed)